Home   Weather   Wörgl   Past weeks

Flag for Austria Past Weather in Wörgl, Tyrol, Austria — Yesterday and Last 2 Weeks

Now
69 °F

Mild.


Feels Like: 69 °F
Forecast: 58 / 83 °F
Wind: 1 mph from Northeast

Location: Kufstein

Current Time: Aug 30, 2016 at 1:15:51 PM

Latest Report: Aug 30, 2016 at 12:00 PM


Visibility: N/A

Pressure: 30.18 "Hg (28.43 "Hg at 514m altitude)

Humidity: 78%

Dew Point: 62 °F

Location of WörglLocation

Past Weather in Wörgl — Graph

°F

Wörgl Temperature Yesterday

Maximum temperature yesterday: 74 °F (at 12:00 PM)
Minimum temperature yesterday: 64 °F (at 7:00 AM)
Average temperature yesterday: 68 °F

High & Low Weather Summary for the Past Weeks

 TemperatureHumidityPressure
High87 °F (Aug 26, 5:00 PM)96% (Aug 17, 5:00 AM)30.47 "Hg (Aug 17, 5:00 AM)
Low50 °F (Aug 23, 7:00 AM)42% (Aug 28, 5:00 PM)29.79 "Hg (Aug 18, 2:00 PM)
Average68 °F76%30.07 "Hg
* Reported Aug 15 12:00 PM — Aug 30 12:00 PM, Wörgl, Weather by CustomWeather, © 2016

Note: Actual official high and low records may vary slightly from our data, if they occured in-between our weather recording intervals... More about our weather records

Advertising

Wörgl Weather History for the Previous 24 Hours

Scroll right to see more
 ConditionsComfort  
Time TempWeatherWind HumidityBarometerVisibility
12:00 PM
Tue, Aug 30
69 °FMild.1 mph78%30.18 "HgN/A
11:00 AM66 °FMild.1 mph82%30.19 "HgN/A
10:00 AM65 °FMild.2 mph85%30.20 "HgN/A
9:00 AM64 °FMild.No wind92%30.20 "HgN/A
8:00 AM62 °FCool.No wind94%30.19 "HgN/A
7:00 AM62 °FCool.No wind95%30.18 "HgN/A
6:00 AM62 °FCool.1 mph95%30.17 "HgN/A
5:00 AM62 °FCool.No wind96%30.17 "HgN/A
4:00 AM62 °FCool.No wind96%30.17 "HgN/A
3:00 AM62 °FFog.No wind95%30.17 "HgN/A
2:00 AM62 °FCool.No wind95%30.18 "HgN/A
1:00 AM64 °FMild.1 mph95%30.17 "HgN/A
12:00 AM64 °FMild.1 mph91%30.17 "HgN/A
11:00 PM
Mon, Aug 29
64 °FMild.No wind91%30.16 "HgN/A
10:00 PM65 °FMild.No wind89%30.15 "HgN/A
9:00 PM66 °FMild.1 mph86%30.12 "HgN/A
8:00 PM67 °FMild.No wind86%30.10 "HgN/A
7:00 PM68 °FMild.1 mph82%30.10 "HgN/A
5:00 PM70 °FMild.1 mph77%30.09 "HgN/A
4:00 PM67 °FMild.1 mph89%30.11 "HgN/A
3:00 PM66 °FMild.2 mph85%30.12 "HgN/A
2:00 PM69 °FMild.3 mph71%30.09 "HgN/A
1:00 PM72 °FMild.3 mph69%30.06 "HgN/A
Weather by CustomWeather, © 2016

See weather overviewHow to use our weather pages